TimeEDT,TemperatureF,Dew PointF,Humidity,Sea Level PressureIn,VisibilityMPH,Wind Direction,Wind SpeedMPH,Gust SpeedMPH,PrecipitationIn,Events,Conditions,WindDirDegrees,DateUTC
12:15 AM,70.2,63.1,78,30.15,10.0,South,4.6,-,N/A,,Mostly Cloudy,170,2013-09-16 04:15:00
12:35 AM,69.6,63.5,81,30.15,10.0,Calm,Calm,-,N/A,,Clear,0,2013-09-16 04:35:00
12:55 AM,69.4,63.9,82,30.15,10.0,Calm,Calm,-,N/A,,Clear,0,2013-09-16 04:55:00
1:15 AM,68.9,64.2,85,30.15,10.0,Calm,Calm,-,N/A,,Clear,0,2013-09-16 05:15:00
1:35 AM,68.5,65.8,91,30.14,10.0,Calm,Calm,-,N/A,,Scattered Clouds,0,2013-09-16 05:35:00
1:55 AM,67.1,65.5,95,30.15,10.0,Calm,Calm,-,N/A,,Clear,0,2013-09-16 05:55:00
2:15 AM,68.0,66.2,94,30.15,10.0,Calm,Calm,-,N/A,,Scattered Clouds,0,2013-09-16 06:15:00
2:35 AM,68.0,66.2,94,30.14,10.0,Calm,Calm,-,N/A,,Scattered Clouds,0,2013-09-16 06:35:00
2:55 AM,67.5,66.0,95,30.14,10.0,Calm,Calm,-,N/A,,Scattered Clouds,0,2013-09-16 06:55:00
3:15 AM,68.0,66.4,95,30.13,10.0,Calm,Calm,-,N/A,,Mostly Cloudy,0,2013-09-16 07:15:00
3:35 AM,68.0,66.7,96,30.13,10.0,Calm,Calm,-,N/A,,Mostly Cloudy,0,2013-09-16 07:35:00
3:55 AM,68.0,67.1,97,30.13,10.0,Calm,Calm,-,N/A,,Overcast,0,2013-09-16 07:55:00
4:15 AM,67.8,66.9,97,30.12,10.0,Calm,Calm,-,N/A,,Overcast,0,2013-09-16 08:15:00
4:35 AM,68.0,67.1,97,30.12,10.0,Calm,Calm,-,N/A,,Overcast,0,2013-09-16 08:35:00
4:55 AM,68.0,67.3,98,30.12,10.0,Calm,Calm,-,N/A,,Scattered Clouds,0,2013-09-16 08:55:00
5:15 AM,67.3,66.4,97,30.12,10.0,Calm,Calm,-,N/A,,Mostly Cloudy,0,2013-09-16 09:15:00
5:35 AM,67.3,66.6,98,30.12,10.0,Calm,Calm,-,N/A,,Overcast,0,2013-09-16 09:35:00
5:55 AM,67.3,66.6,98,30.12,10.0,Calm,Calm,-,N/A,,Overcast,0,2013-09-16 09:55:00
6:15 AM,67.3,67.1,99,30.11,10.0,Calm,Calm,-,N/A,,Overcast,0,2013-09-16 10:15:00
6:35 AM,68.0,67.1,97,30.11,7.0,Calm,Calm,-,N/A,,Overcast,0,2013-09-16 10:35:00
6:55 AM,68.0,67.6,99,30.12,7.0,Calm,Calm,-,N/A,,Overcast,0,2013-09-16 10:55:00
7:15 AM,68.0,67.6,99,30.12,4.0,SSE,3.5,-,N/A,,Overcast,160,2013-09-16 11:15:00
7:35 AM,68.4,68.2,99,30.14,3.0,WNW,3.5,-,N/A,,Overcast,300,2013-09-16 11:35:00
7:55 AM,69.1,68.9,99,30.13,5.0,Calm,Calm,-,N/A,,Overcast,0,2013-09-16 11:55:00
8:15 AM,69.3,68.9,99,30.13,5.0,Calm,Calm,-,N/A,,Overcast,0,2013-09-16 12:15:00
8:35 AM,70.2,69.4,98,30.13,7.0,Calm,Calm,-,N/A,,Overcast,0,2013-09-16 12:35:00
8:55 AM,71.4,69.8,95,30.14,5.0,Calm,Calm,-,N/A,,Overcast,0,2013-09-16 12:55:00
9:15 AM,70.7,69.8,97,30.14,7.0,Calm,Calm,-,N/A,,Overcast,0,2013-09-16 13:15:00
9:35 AM,71.8,70.3,95,30.14,7.0,Calm,Calm,-,N/A,,Overcast,0,2013-09-16 13:35:00
9:55 AM,73.0,70.9,93,30.14,7.0,Calm,Calm,-,N/A,,Overcast,0,2013-09-16 13:55:00
10:15 AM,73.8,71.8,93,30.14,10.0,Calm,Calm,-,N/A,,Overcast,0,2013-09-16 14:15:00
10:35 AM,75.2,72.0,90,30.14,10.0,Calm,Calm,-,N/A,,Overcast,0,2013-09-16 14:35:00
10:55 AM,75.7,71.4,86,30.14,10.0,Calm,Calm,-,N/A,,Overcast,0,2013-09-16 14:55:00
11:15 AM,77.0,71.4,83,30.13,10.0,Calm,Calm,-,N/A,,Mostly Cloudy,0,2013-09-16 15:15:00
11:35 AM,77.9,70.3,77,30.13,10.0,Calm,Calm,-,N/A,,Mostly Cloudy,0,2013-09-16 15:35:00
11:55 AM,79.7,70.2,73,30.12,10.0,NNW,3.5,-,N/A,,Scattered Clouds,330,2013-09-16 15:55:00
12:15 PM,81.1,68.2,65,30.12,10.0,NW,6.9,-,N/A,,Scattered Clouds,320,2013-09-16 16:15:00
12:35 PM,82.9,64.8,54,30.12,10.0,WNW,4.6,-,N/A,,Clear,290,2013-09-16 16:35:00
12:55 PM,83.8,62.8,49,30.11,10.0,Calm,Calm,-,N/A,,Clear,0,2013-09-16 16:55:00
1:15 PM,85.5,59.7,42,30.10,10.0,WNW,3.5,-,N/A,,Scattered Clouds,300,2013-09-16 17:15:00
1:35 PM,85.6,59.9,42,30.10,10.0,WNW,4.6,-,N/A,,Scattered Clouds,300,2013-09-16 17:35:00
1:55 PM,86.7,57.4,37,30.09,10.0,NW,5.8,-,N/A,,Scattered Clouds,310,2013-09-16 17:55:00
2:15 PM,85.3,59.7,42,30.08,10.0,WNW,4.6,-,N/A,,Clear,300,2013-09-16 18:15:00
2:35 PM,85.5,62.6,46,30.07,10.0,NNW,5.8,-,N/A,,Scattered Clouds,340,2013-09-16 18:35:00
2:55 PM,86.2,59.5,40,30.07,10.0,NNW,4.6,-,N/A,,Scattered Clouds,340,2013-09-16 18:55:00
3:15 PM,86.7,59.2,39,30.06,10.0,NNW,5.8,-,N/A,,Scattered Clouds,340,2013-09-16 19:15:00
3:35 PM,87.3,57.7,37,30.05,10.0,WNW,4.6,-,N/A,,Scattered Clouds,300,2013-09-16 19:35:00
3:55 PM,87.3,57.0,36,30.05,10.0,NNW,4.6,-,N/A,,Scattered Clouds,340,2013-09-16 19:55:00
4:15 PM,86.4,56.7,36,30.05,10.0,NNW,3.5,-,N/A,,Scattered Clouds,330,2013-09-16 20:15:00
4:35 PM,87.3,56.1,35,30.05,10.0,North,3.5,-,N/A,,Scattered Clouds,350,2013-09-16 20:35:00
4:55 PM,86.7,54.7,33,30.05,10.0,North,4.6,-,N/A,,Mostly Cloudy,360,2013-09-16 20:55:00
5:15 PM,85.6,54.5,34,30.06,10.0,NNW,4.6,-,N/A,,Mostly Cloudy,340,2013-09-16 21:15:00
5:35 PM,85.5,55.0,35,30.06,10.0,Calm,Calm,-,N/A,,Overcast,0,2013-09-16 21:35:00
5:55 PM,84.2,56.8,39,30.06,10.0,Calm,Calm,-,N/A,,Overcast,0,2013-09-16 21:55:00
6:15 PM,84.4,57.4,40,30.06,10.0,Calm,Calm,-,N/A,,Mostly Cloudy,0,2013-09-16 22:15:00
6:35 PM,82.4,60.4,47,30.07,10.0,Calm,Calm,-,N/A,,Scattered Clouds,0,2013-09-16 22:35:00
6:55 PM,82.0,59.5,46,30.07,10.0,Calm,Calm,-,N/A,,Scattered Clouds,0,2013-09-16 22:55:00
7:15 PM,79.9,60.8,52,30.08,10.0,North,5.8,-,N/A,,Scattered Clouds,10,2013-09-16 23:15:00
7:35 PM,78.8,59.9,52,30.10,10.0,North,6.9,-,N/A,,Mostly Cloudy,10,2013-09-16 23:35:00
7:55 PM,78.1,59.0,52,30.10,10.0,North,6.9,-,N/A,,Mostly Cloudy,10,2013-09-16 23:55:00
8:15 PM,77.4,58.5,52,30.11,10.0,North,4.6,-,N/A,,Scattered Clouds,360,2013-09-17 00:15:00
8:35 PM,76.8,58.1,52,30.12,10.0,North,4.6,-,N/A,,Mostly Cloudy,360,2013-09-17 00:35:00
8:55 PM,76.1,58.5,54,30.13,10.0,North,4.6,-,N/A,,Mostly Cloudy,360,2013-09-17 00:55:00
9:15 PM,76.1,59.0,55,30.14,10.0,NNE,5.8,-,N/A,,Overcast,20,2013-09-17 01:15:00
9:35 PM,75.7,59.4,57,30.14,10.0,NE,6.9,-,N/A,,Overcast,40,2013-09-17 01:35:00
9:55 PM,75.2,59.9,59,30.15,10.0,NE,8.1,-,N/A,,Overcast,40,2013-09-17 01:55:00
10:15 PM,74.8,59.7,59,30.15,10.0,NE,6.9,-,N/A,,Overcast,40,2013-09-17 02:15:00
10:35 PM,73.9,60.8,63,30.16,10.0,NE,8.1,-,N/A,,Overcast,40,2013-09-17 02:35:00
10:55 PM,73.4,60.6,64,30.16,10.0,NNE,10.4,17.3,N/A,,Overcast,30,2013-09-17 02:55:00
11:15 PM,72.7,60.8,66,30.17,10.0,NNE,9.2,-,N/A,,Overcast,30,2013-09-17 03:15:00
11:35 PM,72.5,60.1,65,30.17,10.0,NNE,9.2,-,N/A,,Overcast,30,2013-09-17 03:35:00
11:55 PM,71.8,59.9,66,30.19,10.0,NNE,9.2,16.1,N/A,,Overcast,30,2013-09-17 03:55:00